Weather History for Effingham, IL

Change the Weather History Date:

Thursday, March 20, 2014

  Actual Average (KMTO) Record (KMTO)
Temperature  
Mean Temperature 44 °F 44 °F  
Max Temperature 63 °F 54 °F 80 °F (2012)
Min Temperature 26 °F 34 °F 11 °F (1965)
Degree Days  
Heating Degree Days 21 21  
Month to date heating degree days 490  
Since 1 July heating degree days 4694  
Cooling Degree Days 0 0  
Month to date cooling degree days 0  
Year to date cooling degree days 0  
Moisture  
Dew Point 26 °F    
Average Humidity 54    
Maximum Humidity 90    
Minimum Humidity 22    
Precipitation  
Precipitation 0.00 in 0.09 in 1.85 in (1962)
Month to date precipitation 1.43  
Year to date precipitation 5.41  
Sea Level Pressure  
Sea Level Pressure 30.06 in    
Wind  
Wind Speed 5 mph (SW)    
Max Wind Speed 15 mph    
Max Gust Speed 24 mph    
Visibility 9 miles    
Events      
T = Trace of Precipitation, MM = Missing Value Source: NWS Daily Summary

Daily Weather History Graph

Daily Weather History Graph

Search for Another Location

Airport:

Trip Planner

Search our weather history database for the weather conditions in past years. The results will help you decide how hot, cold, wet, or windy it might be!

Date:

Astronomy

Mar. 20, 2014 Rise Set
Actual Time 6:57 AM CDT 7:06 PM CDT
Civil Twilight 6:30 AM CDT 7:32 PM CDT
Nautical Twilight 5:59 AM CDT 8:04 PM CDT
Astronomical Twilight 5:28 AM CDT 8:35 PM CDT
Moon 11:23 PM CDT (3/20) 9:05 AM CDT (3/20)
Length of Visible Light 13h 01m
Length of Day
12h 08m
Waning Gibbous, 84% of the Moon is Illuminated
Mar 20
Waning Gibbous
Mar 23
Last Quarter
Mar 30
New
Apr 7
First Quarter
Apr 15
Full

Hourly Weather History & Observations

Time (CDT) Temp. Windchill Dew Point Humidity Pressure Visibility Wind Dir Wind Speed Gust Speed Precip Events Conditions
12:15 AM 30.9 °F 27.5 °F 24.6 °F 77% 30.14 in 10.0 mi West 3.5 mph - N/A   Clear
12:35 AM 31.1 °F 27.7 °F 24.8 °F 77% 30.13 in 10.0 mi WSW 3.5 mph - N/A   Clear
12:55 AM 29.8 °F - 24.8 °F 81% 30.13 in 10.0 mi Calm Calm - N/A   Clear
1:15 AM 28.2 °F 24.4 °F 23.7 °F 83% 30.13 in 7.0 mi SW 3.5 mph - N/A   Clear
1:35 AM 28.9 °F - 25.3 °F 86% 30.13 in 7.0 mi Calm Calm - N/A   Clear
1:55 AM 28.6 °F - 25.0 °F 86% 30.13 in 7.0 mi Calm Calm - N/A   Clear
2:15 AM 28.9 °F - 25.7 °F 88% 30.13 in 5.0 mi Calm Calm - N/A   Clear
2:35 AM 27.7 °F - 24.8 °F 89% 30.12 in 5.0 mi Calm Calm - N/A   Clear
2:55 AM 28.2 °F - 25.5 °F 90% 30.12 in 5.0 mi Calm Calm - N/A   Clear
3:15 AM 26.6 °F 22.6 °F 23.7 °F 89% 30.12 in 5.0 mi SSW 3.5 mph - N/A   Clear
3:35 AM 27.5 °F - 24.8 °F 90% 30.11 in 5.0 mi Calm Calm - N/A   Clear
3:55 AM 27.1 °F - 24.4 °F 90% 30.11 in 5.0 mi Calm Calm - N/A   Clear
4:15 AM 27.3 °F - 24.8 °F 90% 30.12 in 3.0 mi Calm Calm - N/A   Clear
4:35 AM 26.6 °F - 23.9 °F 90% 30.12 in 5.0 mi Calm Calm - N/A   Clear
4:55 AM 27.3 °F - 24.8 °F 90% 30.13 in 5.0 mi Calm Calm - N/A   Clear
5:15 AM 27.9 °F - 25.2 °F 90% 30.12 in 5.0 mi Calm Calm - N/A   Clear
5:35 AM 27.5 °F - 24.6 °F 89% 30.13 in 5.0 mi Calm Calm - N/A   Clear
5:55 AM 27.9 °F - 25.2 °F 90% 30.13 in 5.0 mi Calm Calm - N/A   Clear
6:15 AM 27.3 °F 22.0 °F 24.4 °F 89% 30.13 in 5.0 mi SSW 4.6 mph - N/A   Clear
6:35 AM 28.0 °F 24.2 °F 24.8 °F 88% 30.13 in 7.0 mi SSW 3.5 mph - N/A   Clear
6:55 AM 28.8 °F 23.7 °F 25.3 °F 87% 30.13 in 7.0 mi South 4.6 mph - N/A   Clear
7:15 AM 29.7 °F 26.1 °F 25.7 °F 85% 30.13 in 7.0 mi SSW 3.5 mph - N/A   Clear
7:35 AM 30.0 °F 26.5 °F 26.2 °F 86% 30.13 in 7.0 mi South 3.5 mph - N/A   Clear
7:55 AM 31.3 °F 25.6 °F 27.3 °F 85% 30.13 in 7.0 mi South 5.8 mph - N/A   Clear
8:15 AM 33.3 °F 27.9 °F 28.6 °F 83% 30.13 in 7.0 mi SSW 5.8 mph - N/A   Clear
8:35 AM 35.6 °F 30.7 °F 29.5 °F 78% 30.13 in 7.0 mi South 5.8 mph - N/A   Clear
8:55 AM 37.9 °F 32.7 °F 30.9 °F 76% 30.13 in 7.0 mi SSW 6.9 mph - N/A   Scattered Clouds
9:15 AM 37.9 °F 32.7 °F 29.3 °F 71% 30.13 in 10.0 mi SSW 6.9 mph - N/A   Mostly Cloudy
9:35 AM 41.4 °F 36.2 °F 29.8 °F 64% 30.13 in 10.0 mi SSW 8.1 mph - N/A   Scattered Clouds
9:55 AM 44.2 °F 38.8 °F 30.0 °F 57% 30.13 in 10.0 mi SSW 10.4 mph - N/A   Clear
10:15 AM 45.9 °F 40.4 °F 29.5 °F 53% 30.13 in 10.0 mi SSW 11.5 mph 16.1 mph N/A   Clear
10:35 AM 48.4 °F - 29.7 °F 48% 30.12 in 10.0 mi SW 10.4 mph - N/A   Clear
10:55 AM 50.0 °F - 30.0 °F 46% 30.12 in 10.0 mi SW 9.2 mph 17.3 mph N/A   Clear
11:15 AM 52.0 °F - 29.5 °F 42% 30.11 in 10.0 mi WSW 12.7 mph - N/A   Clear
11:35 AM 53.6 °F - 27.3 °F 36% 30.10 in 10.0 mi SSW 10.4 mph 17.3 mph N/A   Clear
11:55 AM 54.9 °F - 26.8 °F 34% 30.09 in 10.0 mi SW 15.0 mph - N/A   Clear
12:15 PM 55.9 °F - 25.9 °F 31% 30.08 in 10.0 mi WSW 13.8 mph 19.6 mph N/A   Clear
12:35 PM 57.6 °F - 26.1 °F 30% 30.07 in 10.0 mi West 12.7 mph 21.9 mph N/A   Clear
12:55 PM 57.4 °F - 25.2 °F 29% 30.06 in 10.0 mi West 9.2 mph - N/A   Clear
1:15 PM 58.6 °F - 26.1 °F 29% 30.06 in 10.0 mi West 13.8 mph 21.9 mph N/A   Clear
1:35 PM 59.4 °F - 27.1 °F 29% 30.05 in 10.0 mi West 12.7 mph 20.7 mph N/A   Clear
1:55 PM 58.8 °F - 25.5 °F 28% 30.04 in 10.0 mi West 11.5 mph - N/A   Clear
2:15 PM 58.8 °F - 26.6 °F 29% 30.03 in 10.0 mi WNW 10.4 mph 17.3 mph N/A   Clear
2:35 PM 61.5 °F - 24.8 °F 25% 30.03 in 10.0 mi West 15.0 mph 21.9 mph N/A   Scattered Clouds
2:55 PM 60.6 °F - 24.8 °F 25% 30.02 in 10.0 mi WNW 12.7 mph 23.0 mph N/A   Scattered Clouds
3:15 PM 62.6 °F - 23.4 °F 22% 30.01 in 10.0 mi WSW 12.7 mph 24.2 mph N/A   Mostly Cloudy
3:35 PM 61.2 °F - 24.1 °F 24% 30.01 in 10.0 mi West 10.4 mph 18.4 mph N/A   Scattered Clouds
3:55 PM 62.1 °F - 24.8 °F 24% 30.00 in 10.0 mi West 11.5 mph 24.2 mph N/A   Scattered Clouds
4:15 PM 62.6 °F - 23.7 °F 23% 29.99 in 10.0 mi West 12.7 mph 19.6 mph N/A   Scattered Clouds
4:35 PM 62.8 °F - 23.7 °F 23% 29.98 in 10.0 mi WSW 13.8 mph 20.7 mph N/A   Scattered Clouds
4:55 PM 62.6 °F - 23.0 °F 22% 29.98 in 10.0 mi WSW 12.7 mph 20.7 mph N/A   Scattered Clouds
5:15 PM 62.6 °F - 24.3 °F 23% 29.97 in 10.0 mi SW 10.4 mph 20.7 mph N/A   Scattered Clouds
5:35 PM 61.7 °F - 24.4 °F 24% 29.97 in 10.0 mi SW 11.5 mph 18.4 mph N/A   Clear
5:55 PM 61.3 °F - 23.9 °F 24% 29.97 in 10.0 mi SW 9.2 mph - N/A   Clear
6:15 PM 60.6 °F - 24.1 °F 25% 29.97 in 10.0 mi SW 9.2 mph - N/A   Clear
6:35 PM 59.2 °F - 24.8 °F 27% 29.96 in 10.0 mi SW 8.1 mph - N/A   Clear
6:55 PM 56.7 °F - 25.5 °F 30% 29.96 in 10.0 mi SW 4.6 mph - N/A   Clear
7:15 PM 57.2 °F - 23.7 °F 28% 29.96 in 10.0 mi South 3.5 mph - N/A   Clear
7:35 PM 56.8 °F - 24.3 °F 28% 29.96 in 10.0 mi South 3.5 mph - N/A   Clear
7:55 PM 55.2 °F - 23.9 °F 30% 29.96 in 10.0 mi SSE 4.6 mph - N/A   Clear
8:15 PM 53.8 °F - 25.0 °F 33% 29.96 in 10.0 mi South 5.8 mph - N/A   Clear
8:35 PM 54.7 °F - 24.3 °F 31% 29.97 in 10.0 mi South 6.9 mph - N/A   Clear
8:55 PM 54.7 °F - 24.8 °F 32% 29.98 in 10.0 mi South 8.1 mph - N/A   Clear
9:15 PM 54.0 °F - 25.5 °F 33% 29.98 in 10.0 mi South 8.1 mph - N/A   Clear
9:35 PM 52.9 °F - 26.4 °F 36% 29.98 in 10.0 mi South 5.8 mph - N/A   Clear
9:55 PM 52.7 °F - 27.0 °F 37% 29.98 in 10.0 mi South 8.1 mph - N/A   Clear
10:15 PM 51.8 °F - 27.7 °F 39% 29.98 in 10.0 mi South 8.1 mph - N/A   Clear
10:35 PM 52.2 °F - 27.9 °F 39% 29.98 in 10.0 mi South 9.2 mph 16.1 mph N/A   Clear
10:55 PM 51.1 °F - 28.2 °F 41% 29.98 in 10.0 mi South 9.2 mph - N/A   Clear
11:15 PM 51.1 °F - 28.4 °F 42% 29.98 in 10.0 mi South 10.4 mph - N/A   Clear
11:35 PM 50.9 °F - 28.8 °F 43% 29.97 in 10.0 mi South 10.4 mph - N/A   Clear
11:55 PM 50.7 °F - 28.8 °F 43% 29.97 in 10.0 mi South 9.2 mph - N/A   Clear